Weather History for Slayton, MN

Change the Weather History Date:

Sunday, February 10, 2013

  Actual Average (KOTG) Record (KOTG)
Temperature  
Mean Temperature 28 °F -  
Max Temperature 32 °F 27 °F 56 °F (1977)
Min Temperature 24 °F 11 °F -19 °F (1975)
Degree Days  
Heating Degree Days 37    
Moisture  
Dew Point 29 °F    
Average Humidity 99    
Maximum Humidity 100    
Minimum Humidity 95    
Precipitation  
Precipitation 0.19 in - - ()
Sea Level Pressure  
Sea Level Pressure 29.43 in    
Wind  
Wind Speed 16 mph (ENE)    
Max Wind Speed 32 mph    
Max Gust Speed 38 mph    
Visibility 2 miles    
Events Fog , Snow    
Averages and records for this station are not official NWS values.
T = Trace of Precipitation, MM = Missing Value Source: NWS Daily Summary

Daily Weather History Graph

Daily Weather History Graph

Search for Another Location

Airport:

Trip Planner

Search our weather history database for the weather conditions in past years. The results will help you decide how hot, cold, wet, or windy it might be!

Date:

Astronomy

Feb. 10, 2013 Rise Set
Actual Time 7:28 AM CST 5:46 PM CST
Civil Twilight 6:58 AM CST 6:16 PM CST
Nautical Twilight 6:25 AM CST 6:50 PM CST
Astronomical Twilight 5:51 AM CST 7:23 PM CST
Moon 7:16 AM CST (2/10) 6:42 PM CST (2/10)
Length of Visible Light 11h 17m
Length of Day
10h 17m
New Moon, 0% of the Moon is Illuminated
Feb 10
New Moon
Feb 17
First Quarter
Feb 25
Full
Mar 4
Last Quarter
Mar 11
New

Hourly Weather History & Observations

Time (CST) Temp. Windchill Dew Point Humidity Pressure Visibility Wind Dir Wind Speed Gust Speed Precip Events Conditions
12:15 AM 30.7 °F 19.2 °F 30.2 °F 98% 29.74 in 4.0 mi ESE 17.3 mph - N/A   Overcast
12:35 AM 30.6 °F 17.9 °F 30.0 °F 98% 29.74 in 4.0 mi SE 20.7 mph - N/A   Overcast
12:55 AM 30.6 °F 18.6 °F 30.0 °F 98% 29.74 in 4.0 mi ESE 18.4 mph - N/A   Overcast
1:15 AM 30.7 °F 19.2 °F 30.2 °F 98% 29.72 in 3.0 mi ESE 17.3 mph - N/A   Overcast
1:35 AM 30.2 °F 18.9 °F 30.0 °F 99% 29.71 in 3.0 mi SE 16.1 mph - N/A   Overcast
1:55 AM 30.2 °F 18.9 °F 30.0 °F 99% 29.69 in 3.0 mi ESE 16.1 mph - N/A   Overcast
2:15 AM 30.2 °F 19.8 °F 30.0 °F 99% 29.66 in 3.0 mi ESE 13.8 mph - N/A   Overcast
2:35 AM 30.2 °F 18.5 °F 30.2 °F 100% 29.65 in 3.0 mi ESE 17.3 mph 20.7 mph N/A   Overcast
2:55 AM 30.6 °F 19.0 °F 30.6 °F 100% 29.66 in 3.0 mi ESE 17.3 mph 21.9 mph N/A   Overcast
3:14 AM 30.7 °F 18.8 °F 30.7 °F 100% 29.64 in 3.0 mi ESE 18.4 mph - N/A   Overcast
3:35 AM 30.9 °F 19.8 °F 30.9 °F 100% 29.61 in 2.0 mi ESE 16.1 mph 24.2 mph N/A   Overcast
3:55 AM 30.9 °F 19.8 °F 30.9 °F 100% 29.58 in 3.0 mi ESE 16.1 mph - N/A   Overcast
4:14 AM 30.9 °F 19.8 °F 30.9 °F 100% 29.60 in 2.5 mi ESE 16.1 mph 21.9 mph N/A Snow Light Snow
4:35 AM 31.1 °F 25.4 °F 31.1 °F 100% 29.56 in 2.0 mi ESE 5.8 mph 10.4 mph N/A Snow Light Snow
4:55 AM 31.1 °F 21.4 °F 31.1 °F 100% 29.55 in 5.0 mi SE 12.7 mph - N/A   Overcast
5:15 AM 31.1 °F 19.3 °F 31.5 °F 100% 29.53 in 2.0 mi ESE 18.4 mph 23.0 mph 0.01 in Snow Light Snow
5:35 AM 31.5 °F 19.8 °F 31.6 °F 100% 29.53 in 3.0 mi ESE 18.4 mph 26.5 mph 0.01 in Snow Light Snow
5:55 AM 31.3 °F 20.7 °F 31.3 °F 100% 29.49 in 3.0 mi ESE 15.0 mph 20.7 mph 0.01 in Snow Light Snow
6:15 AM 31.1 °F 20.9 °F 31.1 °F 100% 29.46 in 3.0 mi East 13.8 mph - 0.01 in Snow Light Snow
6:35 AM 31.6 °F 21.6 °F 31.8 °F 100% 29.47 in 4.0 mi ESE 13.8 mph 18.4 mph 0.01 in   Overcast
6:55 AM 31.8 °F 22.8 °F 32.0 °F 100% 29.47 in 4.0 mi ESE 11.5 mph 18.4 mph 0.01 in Snow Light Snow
7:15 AM 31.8 °F 20.6 °F 32.0 °F 100% 29.46 in 3.0 mi ESE 17.3 mph 20.7 mph 0.01 in Snow Light Snow
7:35 AM 31.8 °F 21.8 °F 32.0 °F 100% 29.44 in 1.5 mi East 13.8 mph - 0.03 in Snow Light Snow
7:55 AM 31.6 °F 22.6 °F 31.8 °F 100% 29.44 in 1.0 mi ESE 11.5 mph - 0.05 in Snow Light Snow
8:15 AM 31.6 °F 23.1 °F 31.8 °F 100% 29.43 in 1.2 mi East 10.4 mph - 0.01 in Snow Light Snow
8:34 AM 31.8 °F 22.8 °F 32.0 °F 100% 29.43 in 0.5 mi East 11.5 mph - 0.02 in Snow Snow
8:55 AM 31.8 °F 22.8 °F 32.0 °F 100% 29.41 in 0.5 mi East 11.5 mph - 0.04 in Snow Snow
9:15 AM 31.8 °F 22.8 °F 32.0 °F 100% 29.39 in 0.8 mi East 11.5 mph - N/A Snow Light Snow
9:35 AM 31.8 °F 22.3 °F 32.0 °F 100% 29.39 in 1.2 mi East 12.7 mph - N/A Snow Light Snow
9:55 AM 31.8 °F 22.8 °F 32.0 °F 100% 29.38 in 1.0 mi East 11.5 mph - 0.01 in Snow Light Snow
10:15 AM 32.0 °F 23.6 °F 32.0 °F 100% 29.36 in 0.8 mi East 10.4 mph - 0.01 in Snow Light Snow
10:35 AM 32.0 °F 24.2 °F 32.0 °F 100% 29.34 in 1.8 mi East 9.2 mph - 0.01 in Snow Light Snow
10:55 AM 32.0 °F 24.2 °F 32.0 °F 100% 29.34 in 1.5 mi East 9.2 mph - 0.02 in Snow Light Snow
11:15 AM 32.0 °F 24.2 °F 32.0 °F 100% 29.33 in 1.0 mi East 9.2 mph - 0.01 in Snow Light Snow
11:35 AM 32.0 °F 24.8 °F 32.0 °F 100% 29.32 in 7.0 mi East 8.1 mph - 0.01 in   Overcast
11:54 AM 32.5 °F 24.8 °F 32.4 °F 99% 29.31 in 4.0 mi East 9.2 mph - 0.01 in   Overcast
12:16 PM 32.5 °F 24.8 °F 32.4 °F 99% 29.29 in 2.0 mi East 9.2 mph - N/A   Overcast
12:35 PM 32.7 °F 25.7 °F 32.7 °F 100% 29.27 in 1.2 mi East 8.1 mph - N/A   Overcast
12:54 PM - - - N/A% 29.26 in 0.5 mi East 9.2 mph - N/A Fog Fog
1:15 PM - - - N/A% 29.26 in 0.2 mi East 5.8 mph - N/A Fog Fog
1:35 PM 32.5 °F 27.1 °F 32.5 °F 100% 29.25 in 0.2 mi NE 5.8 mph - N/A Snow Light Snow
1:55 PM 32.5 °F 27.1 °F 32.5 °F 100% 29.24 in 0.2 mi NE 5.8 mph - N/A Fog Fog
2:15 PM 32.5 °F 27.1 °F 32.7 °F 100% 29.23 in 0.2 mi NNE 5.8 mph - N/A Fog Fog
2:35 PM 32.5 °F 26.2 °F 32.5 °F 100% 29.23 in 0.2 mi NNE 6.9 mph - N/A Fog Fog
2:55 PM 32.2 °F 25.8 °F 32.4 °F 100% 29.23 in 0.2 mi North 6.9 mph - N/A   Light Drizzle
3:15 PM 32.0 °F 24.2 °F 32.0 °F 100% 29.23 in 0.2 mi North 9.2 mph - N/A Fog Fog
3:35 PM 32.0 °F 23.6 °F 32.0 °F 100% 29.24 in 0.2 mi North 10.4 mph - N/A Snow Light Snow
3:55 PM 32.0 °F 23.0 °F 32.0 °F 100% 29.24 in 0.8 mi NNW 11.5 mph - 0.01 in Snow Light Snow
4:14 PM 31.8 °F 22.3 °F 32.0 °F 100% 29.25 in 0.2 mi NNW 12.7 mph - 0.02 in Snow Snow
4:35 PM 30.7 °F 20.9 °F 30.9 °F 100% 29.26 in 0.2 mi NNW 12.7 mph - 0.03 in Snow Snow
4:55 PM 30.2 °F 19.8 °F 30.2 °F 100% 29.27 in 0.2 mi NNW 13.8 mph 18.4 mph 0.03 in Snow Snow
5:15 PM 28.2 °F 15.2 °F 28.2 °F 100% 29.28 in 0.5 mi NW 19.6 mph 24.2 mph N/A Snow Snow
5:35 PM 27.0 °F 12.8 °F 26.6 °F 99% 29.29 in 0.2 mi NW 21.9 mph 26.5 mph N/A Snow Snow
5:55 PM 26.2 °F 11.9 °F 25.7 °F 98% 29.30 in 1.0 mi NNW 21.9 mph 27.6 mph N/A Snow Light Snow
6:15 PM 26.1 °F 11.6 °F 25.5 °F 98% 29.32 in 1.2 mi NW 21.9 mph 28.8 mph N/A Snow Light Snow
6:35 PM 25.5 °F 10.9 °F 24.8 °F 97% 29.32 in 1.8 mi NNW 21.9 mph 27.6 mph N/A Snow Light Snow
6:55 PM 25.2 °F 10.4 °F 24.4 °F 97% 29.34 in 3.0 mi NW 21.9 mph 27.6 mph N/A   Overcast
7:15 PM 25.0 °F 9.5 °F 24.3 °F 97% 29.35 in 2.5 mi NW 24.2 mph 28.8 mph N/A Snow Light Snow
7:35 PM 24.6 °F 9.1 °F 23.9 °F 97% 29.36 in 2.0 mi NW 24.2 mph 29.9 mph N/A Snow Light Snow
7:55 PM 24.6 °F 9.1 °F 23.7 °F 96% 29.37 in 1.8 mi NW 24.2 mph 29.9 mph N/A Snow Light Snow
8:15 PM 24.6 °F 8.8 °F 23.7 °F 96% 29.38 in 2.5 mi NW 25.3 mph 28.8 mph N/A Snow Light Snow
8:34 PM 24.6 °F 8.5 °F 23.7 °F 96% 29.40 in 1.8 mi NW 26.5 mph - N/A Snow Light Snow
8:55 PM 24.8 °F 9.0 °F 23.9 °F 96% 29.41 in 2.0 mi NW 25.3 mph 33.4 mph N/A Snow Light Snow
9:15 PM 24.8 °F 9.6 °F 23.9 °F 96% 29.42 in 2.5 mi NW 23.0 mph 32.2 mph N/A Snow Light Snow
9:35 PM 25.2 °F 10.1 °F 23.9 °F 95% 29.43 in 4.0 mi NW 23.0 mph 31.1 mph N/A Snow Light Snow
9:55 PM 25.0 °F 9.2 °F 23.9 °F 96% 29.44 in 2.5 mi NW 25.3 mph 31.1 mph N/A Snow Light Snow
10:15 PM 25.2 °F 9.5 °F 23.9 °F 95% 29.45 in 2.0 mi NW 25.3 mph 35.7 mph N/A Snow Light Snow
10:35 PM 25.2 °F 9.5 °F 24.3 °F 96% 29.46 in 1.8 mi NW 25.3 mph 36.8 mph N/A Snow Light Snow
10:55 PM 25.2 °F 8.6 °F 24.3 °F 96% 29.47 in 2.0 mi NW 28.8 mph 36.8 mph N/A Snow Light Snow
11:15 PM 25.2 °F 8.6 °F 23.9 °F 95% 29.49 in 2.0 mi NW 28.8 mph 35.7 mph N/A   Overcast
11:35 PM 25.2 °F 8.6 °F 23.9 °F 95% 29.50 in 2.0 mi NW 28.8 mph - N/A Snow Light Snow
11:54 PM 24.8 °F 7.3 °F 23.9 °F 96% 29.52 in 1.8 mi NW 32.2 mph 38.0 mph N/A Snow Light Snow